CZ-6A DEB, 54302

Orbit data source: Space-Track

CZ-6A DEB, 54302 is space debris in SSO originally from a launch on Fri, 11 Nov 2022 UTC launched from the Taiyaun Space Center, China (TSC). Debris objects in space refer to the collection of defunct objects orbiting the Earth. Examples of debris include non-operational satellites, rocket bodies, and fragments generated from explosions, collisions, or faulty payload assembly.

Loading next visibility...
Identifier
54302, 2022-151AV
Orbit
SSO
Country
Flag of CNCN / PRC
Related business
Manufacturer
SAST
Mission
Spacecraft
Bus & Motor
Unknown
Mass
Unknown
Launch date (UTC)
2022-11-11 (3 years ago)
Launch vehicle
Unknown
Launch site
Taiyaun Space Center, China (TSC)
Object type
Payload
Rocket body
Debris
Shape & HBR
Unknown shape, 0.1 m
Radar Cross Section
Small (<0.1 m²)

Expand to show TLE details & history
Last TLE update: 13 hours ago

TLE from 13 hours ago
0 CZ-6A DEB
1 54302U 22151AV  25355.24591742  .00004329  00000-0  72797-3 0  9992
2 54302  98.8732  93.6844 0102034  33.2039 327.5510 14.66793238164583
Epoch: 2025-12-21T05:54Z
TLE epoch observation values (Epoch: 2025-12-21T05:54:07.265Z)
Latitude
-0.00005°
Longitude
-84.90699°
Altitude
613.8 km
Speed
7.585 km/s
True Right ascension
06h 14m 44s
True Declination
0° 00' 00"
Sunlit
Object was in full shadow at epoch
Visualization orbit readout
Latitude
Unknown
Longitude
Unknown
Altitude
Unknown
Speed
Unknown
Apparent Right ascension
Unknown
Apparent Declination
Unknown
Sunlit
N/A
Visualization observer readout
Local Sidereal Time
17:39:58
Azimuth
Unknown
Elevation
Unknown
Doppler factor
Unknown
Orbital elements
Apogee altitude
740.327 km
Perigee altitude
596.529 km
Semi-major axis
7,046.565 km
Eccentricity
0.0102
Inclination
98.8732°
RAAN
93.6844°
Arg. of periapsis
33.2039°
True anomaly
326.91685°
Mean anomaly
327.551°
Eccentric anomaly
327.23461°
Mean motion
3.66925 °/min
Orbital period
98.11 mins
BSTAR
0.00072797
Loading maneuver chart data...
Computing Atmospheric mass density...
Loading historical data...
Loading historical data...
Loading historical data...
Loading historical data...
Loading historical data...
Loading historical data...
Loading historical data...

Documentation

Showing up to 5 results
|